DW6801 Weather Reports


Display with metric or nautical units.
time (UTC)temp
F
wind
direction
speed
MPH
gust
MPH
rain 1hr
in
rain 24hr
in
rain mn
in
humidity
%
barometer
mb
20260509030506 35 67 0.0 2.0 0.00 0.00 0.00 76 1024.3
20260509030006 35 67 0.0 2.0 0.00 0.00 0.00 76 1024.2
20260509025505 34 67 0.0 2.0 0.00 0.00 0.00 77 1024.3
20260509025009 35 72 0.0 2.0 0.00 0.00 0.00 76 1024.3
20260509024504 35 73 0.0 2.0 0.00 0.00 0.00 76 1024.2
20260509024007 35 73 0.0 2.0 0.00 0.00 0.00 76 1024.2
20260509023507 35 73 0.0 1.0 0.00 0.00 0.00 76 1024.3
20260509023019 35 73 0.0 1.0 0.00 0.00 0.00 76 1024.4
20260509022503 35 73 0.0 1.0 0.00 0.00 0.00 76 1024.4
20260509022007 35 75 0.0 1.0 0.00 0.00 0.00 76 1024.4
20260509021518 35 75 0.0 2.0 0.00 0.00 0.00 74 1024.4
20260509021003 35 75 0.0 2.0 0.00 0.00 0.00 75 1024.6
20260509020503 35 75 1.0 1.0 0.00 0.00 0.00 75 1024.7
20260509020016 35 76 0.0 2.0 0.00 0.00 0.00 75 1024.7
20260509015508 35 76 0.0 2.0 0.00 0.00 0.00 74 1024.7
20260509015003 36 76 0.0 2.0 0.00 0.00 0.00 74 1024.7
20260509014510 35 76 0.0 2.0 0.00 0.00 0.00 74 1024.8
20260509014009 36 76 0.0 1.0 0.00 0.00 0.00 73 1024.8
20260509013507 36 76 0.0 2.0 0.00 0.00 0.00 72 1024.7
20260509013010 36 76 0.0 2.0 0.00 0.00 0.00 72 1024.7
20260509012512 36 76 0.0 2.0 0.00 0.00 0.00 73 1024.8
20260509012010 35 86 0.0 2.0 0.00 0.00 0.00 74 1024.7
20260509011507 35 86 1.0 2.0 0.00 0.00 0.00 74 1024.8
20260509011006 36 86 0.0 2.0 0.00 0.00 0.00 73 1024.8
20260509010506 35 86 1.0 2.0 0.00 0.00 0.00 73 1024.8
20260509010032 35 98 1.0 2.0 0.00 0.00 0.00 74 1024.9
20260509005506 35 98 0.0 2.0 0.00 0.00 0.00 75 1025.0
20260509005006 36 99 0.0 2.0 0.00 0.00 0.00 73 1024.9
20260509004519 35 98 0.0 2.0 0.00 0.00 0.00 74 1024.8
20260509004003 35 98 0.0 2.0 0.00 0.00 0.00 74 1024.9
20260509003506 36 98 0.0 2.0 0.00 0.00 0.00 73 1024.9
20260509003024 36 105 0.0 1.0 0.00 0.00 0.00 73 1024.9
20260509002507 36 105 0.0 0.0 0.00 0.00 0.00 72 1025.0
20260509002009 36 105 0.0 0.0 0.00 0.00 0.00 73 1025.1
20260509001521 36 105 0.0 0.0 0.00 0.00 0.00 72 1025.2
20260509001010 36 105 0.0 0.0 0.00 0.00 0.00 72 1025.2
20260509000506 37 105 0.0 0.0 0.00 0.00 0.00 71 1025.2
20260509000017 36 105 0.0 0.0 0.00 0.00 0.00 71 1025.2
20260508235513 36 105 0.0 2.0 0.00 0.00 0.00 71 1025.3
20260508235006 37 105 0.0 2.0 0.00 0.00 0.00 72 1025.2
20260508234513 37 105 0.0 7.0 0.00 0.00 0.00 70 1025.3
20260508234009 37 75 1.0 7.0 0.00 0.00 0.00 68 1025.3
20260508233512 37 98 0.0 3.0 0.00 0.00 0.00 71 1025.3
20260508233012 37 99 0.0 3.0 0.00 0.00 0.00 70 1025.5
20260508232507 38 103 0.0 0.0 0.00 0.00 0.00 69 1025.5
20260508232010 38 103 0.0 0.0 0.00 0.00 0.00 68 1025.4
20260508231525 38 103 0.0 0.0 0.00 0.00 0.00 68 1025.5
20260508231007 38 103 0.0 0.0 0.00 0.00 0.00 67 1025.5
20260508230510 38 103 0.0 0.0 0.00 0.00 0.00 67 1025.5
20260508230026 38 103 0.0 0.0 0.00 0.00 0.00 67 1025.5
20260508225513 38 103 0.0 0.0 0.00 0.00 0.00 67 1025.5
20260508225014 38 103 0.0 2.0 0.00 0.00 0.00 67 1025.5
20260508224522 39 103 0.0 2.0 0.00 0.00 0.00 65 1025.5
20260508224009 39 103 0.0 2.0 0.00 0.00 0.00 64 1025.5
20260508223507 39 103 0.0 2.0 0.00 0.00 0.00 63 1025.5
20260508223035 40 105 0.0 2.0 0.00 0.00 0.00 65 1025.5
20260508222508 40 105 0.0 3.0 0.00 0.00 0.00 61 1025.6
20260508222011 41 105 0.0 3.0 0.00 0.00 0.00 61 1025.5
20260508221515 41 101 1.0 3.0 0.00 0.00 0.00 60 1025.5
20260508221013 41 116 1.0 4.0 0.00 0.00 0.00 59 1025.6
20260508220508 41 111 2.0 4.0 0.00 0.00 0.00 60 1025.6
20260508220021 40 126 0.0 2.0 0.00 0.00 0.00 66 1025.6
20260508215507 40 101 0.0 1.0 0.00 0.00 0.00 63 1025.6
20260508215012 40 101 0.0 0.0 0.00 0.00 0.00 64 1025.6
20260508214536 41 101 0.0 0.0 0.00 0.00 0.00 63 1025.5
20260508214008 41 101 0.0 0.0 0.00 0.00 0.00 60 1025.5
20260508213509 41 101 0.0 0.0 0.00 0.00 0.00 60 1025.5
20260508213032 42 101 0.0 0.0 0.00 0.00 0.00 59 1025.4
20260508212507 42 101 0.0 0.0 0.00 0.00 0.00 58 1025.3
20260508212013 43 101 0.0 0.0 0.00 0.00 0.00 56 1025.3
20260508211525 44 101 0.0 1.0 0.00 0.00 0.00 54 1025.3
20260508211011 44 101 0.0 1.0 0.00 0.00 0.00 54 1025.3
20260508210508 45 101 0.0 2.0 0.00 0.00 0.00 52 1025.3
20260508210026 46 101 0.0 2.0 0.00 0.00 0.00 49 1025.3
20260508205514 47 101 1.0 2.0 0.00 0.00 0.00 45 1025.2
20260508205007 48 113 1.0 4.0 0.00 0.00 0.00 45 1025.1
20260508204530 48 130 2.0 6.0 0.00 0.00 0.00 43 1025.1
20260508204017 49 142 3.0 8.0 0.00 0.00 0.00 42 1025.1
20260508203509 49 126 3.0 8.0 0.00 0.00 0.00 42 1025.1
20260508203017 49 133 2.0 7.0 0.00 0.00 0.00 44 1025.0
20260508202511 49 94 2.0 7.0 0.00 0.00 0.00 45 1024.9
20260508202007 49 115 2.0 6.0 0.00 0.00 0.00 45 1024.8
20260508201513 49 121 2.0 4.0 0.00 0.00 0.00 45 1024.8
20260508201008 49 92 3.0 4.0 0.00 0.00 0.00 45 1024.7
20260508200508 49 110 3.0 4.0 0.00 0.00 0.00 1024.7
20260508200028 49 102 2.0 6.0 0.00 0.00 0.00 45 1024.7
20260508195510 49 136 1.0 6.0 0.00 0.00 0.00 45 1024.7
20260508195009 49 124 1.0 4.0 0.00 0.00 0.00 44 1024.6
20260508194526 50 122 3.0 6.0 0.00 0.00 0.00 43 1024.6
20260508194010 50 115 3.0 7.0 0.00 0.00 0.00 43 1024.4
20260508193508 50 106 4.0 7.0 0.00 0.00 0.00 42 1024.4
20260508193026 50 101 2.0 9.0 0.00 0.00 0.00 42 1024.3
20260508192511 50 134 5.0 10.0 0.00 0.00 0.00 43 1024.4
20260508192009 51 113 3.0 10.0 0.00 0.00 0.00 43 1024.4
20260508191528 51 111 3.0 7.0 0.00 0.00 0.00 44 1024.4
20260508191008 51 111 4.0 9.0 0.00 0.00 0.00 44 1024.4
20260508190508 51 116 2.0 9.0 0.00 0.00 0.00 43 1024.4
20260508190026 51 86 3.0 9.0 0.00 0.00 0.00 43 1024.4
20260508185508 51 103 3.0 8.0 0.00 0.00 0.00 42 1024.3
20260508185009 52 122 5.0 9.0 0.00 0.00 0.00 41 1024.3
20260508184518 52 146 5.0 9.0 0.00 0.00 0.00 41 1024.2
20260508184009 52 138 4.0 13.0 0.00 0.00 0.00 42 1024.1
20260508183512 53 126 7.0 13.0 0.00 0.00 0.00 41 1024.1
20260508183026 53 109 8.0 11.0 0.00 0.00 0.00 41 1024.1
20260508182509 53 122 4.0 10.0 0.00 0.00 0.00 40 1024.0
20260508182010 53 127 6.0 10.0 0.00 0.00 0.00 38 1024.1
20260508181527 53 132 6.0 14.0 0.00 0.00 0.00 38 1024.0
20260508181011 54 146 6.0 14.0 0.00 0.00 0.00 38 1024.0
20260508180512 54 144 7.0 13.0 0.00 0.00 0.00 39 1024.0
20260508180027 54 97 7.0 13.0 0.00 0.00 0.00 39 1023.9
20260508175510 54 148 8.0 13.0 0.00 0.00 0.00 39 1023.9
20260508175007 55 126 5.0 14.0 0.00 0.00 0.00 40 1023.8
20260508174524 55 138 4.0 14.0 0.00 0.00 0.00 39 1023.7
20260508174013 55 105 6.0 12.0 0.00 0.00 0.00 39 1023.7
20260508173508 55 165 7.0 12.0 0.00 0.00 0.00 38 1023.6
20260508173024 56 140 10.0 12.0 0.00 0.00 0.00 37 1023.6
20260508172508 56 102 8.0 12.0 0.00 0.00 0.00 36 1023.6
20260508172018 56 145 5.0 12.0 0.00 0.00 0.00 35 1023.6
20260508171528 56 101 3.0 12.0 0.00 0.00 0.00 38 1023.5
20260508171013 56 132 5.0 12.0 0.00 0.00 0.00 38 1023.5
20260508170511 56 139 7.0 12.0 0.00 0.00 0.00 37 1023.5
20260508170018 56 142 8.0 12.0 0.00 0.00 0.00 36 1023.4
20260508165510 57 144 6.0 12.0 0.00 0.00 0.00 36 1023.4
20260508165007 57 130 9.0 12.0 0.00 0.00 0.00 35 1023.4
20260508164528 57 111 9.0 13.0 0.00 0.00 0.00 34 1023.4
20260508164015 57 180 8.0 15.0 0.00 0.00 0.00 34 1023.3
20260508163507 57 112 7.0 15.0 0.00 0.00 0.00 33 1023.4
20260508163026 57 145 6.0 15.0 0.00 0.00 0.00 33 1023.4
20260508162512 57 147 6.0 15.0 0.00 0.00 0.00 33 1023.3
20260508162008 58 173 6.0 12.0 0.00 0.00 0.00 33 1023.3
20260508161528 58 126 8.0 14.0 0.00 0.00 0.00 33 1023.3
20260508161012 58 158 6.0 15.0 0.00 0.00 0.00 33 1023.3
20260508160507 58 151 9.0 15.0 0.00 0.00 0.00 32 1023.3
20260508160048 58 132 7.0 12.0 0.00 0.00 0.00 32 1023.4
20260508155513 58 163 7.0 12.0 0.00 0.00 0.00 31 1023.2
20260508155008 58 123 6.0 11.0 0.00 0.00 0.00 31 1023.1
20260508154526 59 160 3.0 11.0 0.00 0.00 0.00 31 1023.1
20260508154010 58 139 8.0 13.0 0.00 0.00 0.00 30 1023.1
20260508153510 58 138 10.0 16.0 0.00 0.00 0.00 29 1023.1
20260508153028 58 152 9.0 16.0 0.00 0.00 0.00 28 1023.1
20260508152512 59 202 8.0 12.0 0.00 0.00 0.00 31 1023.3
20260508152016 58 193 8.0 14.0 0.00 0.00 0.00 29 1023.4
20260508151523 58 141 9.0 14.0 0.00 0.00 0.00 30 1023.3
20260508151010 59 141 9.0 13.0 0.00 0.00 0.00 30 1023.3
20260508150509 58 130 8.0 12.0 0.00 0.00 0.00 30 1023.4
20260508150034 58 140 8.0 14.0 0.00 0.00 0.00 31 1023.4
20260508145511 59 127 9.0 14.0 0.00 0.00 0.00 30 1023.4
20260508145017 58 140 7.0 12.0 0.00 0.00 0.00 29 1023.5
20260508144527 59 157 6.0 13.0 0.00 0.00 0.00 31 1023.5
20260508144016 59 146 5.0 13.0 0.00 0.00 0.00 31 1023.5
20260508143516 59 169 8.0 14.0 0.00 0.00 0.00 30 1023.6
20260508143031 59 144 7.0 14.0 0.00 0.00 0.00 31 1023.6
20260508142512 59 114 6.0 12.0 0.00 0.00 0.00 28 1023.6
20260508142009 59 132 6.0 12.0 0.00 0.00 0.00 29 1023.6
20260508141536 59 134 7.0 13.0 0.00 0.00 0.00 29 1023.6
20260508141010 59 153 7.0 13.0 0.00 0.00 0.00 30 1023.7
20260508140510 59 161 7.0 14.0 0.00 0.00 0.00 30 1023.8
20260508140024 59 141 8.0 14.0 0.00 0.00 0.00 32 1023.9
20260508135517 59 153 5.0 12.0 0.00 0.00 0.00 32 1023.8
20260508135012 59 144 7.0 12.0 0.00 0.00 0.00 33 1023.8
20260508134531 59 178 7.0 13.0 0.00 0.00 0.00 32 1023.8
20260508134014 59 152 9.0 14.0 0.00 0.00 0.00 35 1023.9
20260508133512 59 151 9.0 14.0 0.00 0.00 0.00 33 1023.8
20260508133028 59 130 7.0 13.0 0.00 0.00 0.00 33 1023.8
20260508132512 60 149 5.0 15.0 0.00 0.00 0.00 35 1023.8
20260508132011 59 136 9.0 16.0 0.00 0.00 0.00 34 1023.8
20260508131529 59 111 6.0 16.0 0.00 0.00 0.00 35 1023.7
20260508131012 59 159 7.0 14.0 0.00 0.00 0.00 35 1023.8
20260508130511 59 144 9.0 16.0 0.00 0.00 0.00 36 1023.9
20260508130028 59 149 9.0 16.0 0.00 0.00 0.00 35 1023.9
20260508125510 59 145 10.0 16.0 0.00 0.00 0.00 35 1023.8
20260508125010 59 144 8.0 13.0 0.00 0.00 0.00 35 1023.9
20260508124527 59 148 7.0 12.0 0.00 0.00 0.00 35 1023.8
20260508124015 59 140 8.0 13.0 0.00 0.00 0.00 34 1023.8
20260508123507 60 143 8.0 13.0 0.00 0.00 0.00 35 1023.9
20260508123028 59 142 6.0 16.0 0.00 0.00 0.00 34 1023.8
20260508122514 59 166 7.0 16.0 0.00 0.00 0.00 34 1023.8
20260508122011 59 123 7.0 13.0 0.00 0.00 0.00 34 1023.8
20260508121549 59 162 8.0 13.0 0.00 0.00 0.00 34 1023.9
20260508121010 59 129 8.0 14.0 0.00 0.00 0.00 33 1023.8
20260508120514 59 146 8.0 14.0 0.00 0.00 0.00 34 1023.7
20260508120024 59 148 7.0 14.0 0.00 0.00 0.00 35 1023.8
20260508115512 59 99 8.0 14.0 0.00 0.00 0.00 33 1023.9
20260508115010 58 150 9.0 13.0 0.00 0.00 0.00 33 1023.8
20260508114528 59 141 6.0 13.0 0.00 0.00 0.00 35 1023.8
20260508114009 60 181 8.0 12.0 0.00 0.00 0.00 34 1023.9
20260508113512 60 132 8.0 12.0 0.00 0.00 0.00 33 1023.9
20260508113028 60 101 6.0 12.0 0.00 0.00 0.00 33 1023.9
20260508112509 59 94 5.0 11.0 0.00 0.00 0.00 34 1023.9
20260508112009 59 147 7.0 12.0 0.00 0.00 0.00 35 1024.0
20260508111526 58 138 7.0 12.0 0.00 0.00 0.00 35 1024.0
20260508111010 59 174 7.0 12.0 0.00 0.00 0.00 36 1024.0
20260508110511 58 134 7.0 12.0 0.00 0.00 0.00 36 1023.9
20260508110031 59 191 6.0 10.0 0.00 0.00 0.00 36 1024.0
20260508105516 58 176 7.0 12.0 0.00 0.00 0.00 37 1024.0
20260508105013 58 164 3.0 13.0 0.00 0.00 0.00 36 1024.0
20260508104527 57 173 7.0 13.0 0.00 0.00 0.00 36 1024.1
20260508104010 57 148 6.0 13.0 0.00 0.00 0.00 36 1024.1
20260508103510 57 113 8.0 12.0 0.00 0.00 0.00 35 1024.1
20260508103026 57 132 7.0 11.0 0.00 0.00 0.00 36 1024.0
20260508102512 57 140 7.0 14.0 0.00 0.00 0.00 38 1024.0
20260508102012 57 141 5.0 14.0 0.00 0.00 0.00 39 1024.0
20260508101525 57 142 4.0 15.0 0.00 0.00 0.00 37 1024.0
20260508101013 57 165 8.0 15.0 0.00 0.00 0.00 38 1024.0
20260508100508 56 155 9.0 14.0 0.00 0.00 0.00 38 1024.1
20260508100023 57 150 7.0 12.0 0.00 0.00 0.00 38 1024.0
20260508095511 56 160 8.0 14.0 0.00 0.00 0.00 38 1024.0
20260508095016 56 92 8.0 14.0 0.00 0.00 0.00 36 1024.0
20260508094522 56 119 7.0 14.0 0.00 0.00 0.00 38 1024.0
20260508094009 56 136 7.0 14.0 0.00 0.00 0.00 39 1024.0
20260508093507 55 140 9.0 13.0 0.00 0.00 0.00 39 1024.0
20260508093023 55 164 10.0 14.0 0.00 0.00 0.00 37 1024.0
20260508092509 55 171 9.0 14.0 0.00 0.00 0.00 37 1024.1
20260508092011 55 151 7.0 14.0 0.00 0.00 0.00 38 1024.0
20260508091513 55 128 6.0 14.0 0.00 0.00 0.00 47 1024.0
20260508091007 54 148 10.0 14.0 0.00 0.00 0.00 50 1024.0
20260508090511 54 146 9.0 15.0 0.00 0.00 0.00 52 1024.0
20260508090011 53 169 8.0 15.0 0.00 0.00 0.00 56 1024.0
20260508085514 54 137 9.0 14.0 0.00 0.00 0.00 57 1024.1
20260508085010 54 117 7.0 13.0 0.00 0.00 0.00 60 1024.0
20260508084528 53 120 8.0 15.0 0.00 0.00 0.00 58 1024.0
20260508084008 53 74 8.0 15.0 0.00 0.00 0.00 58 1023.9
20260508083515 53 169 7.0 12.0 0.00 0.00 0.00 57 1023.9
20260508083110 54 127 7.0 12.0 0.00 0.00 0.00 58 1023.8
20260508082507 53 138 8.0 12.0 0.00 0.00 0.00 57 1023.7
20260508082011 53 170 6.0 13.0 0.00 0.00 0.00 57 1023.7
20260508081526 53 85 7.0 13.0 0.00 0.00 0.00 61 1023.7
20260508081007 52 123 8.0 12.0 0.00 0.00 0.00 60 1023.7
20260508080506 52 144 9.0 12.0 0.00 0.00 0.00 60 1023.7
20260508080021 52 103 9.0 13.0 0.00 0.00 0.00 60 1023.8
20260508075512 52 145 4.0 17.0 0.00 0.00 0.00 60 1023.7
20260508075003 52 161 7.0 17.0 0.00 0.00 0.00 60 1023.7
20260508074519 52 137 7.0 13.0 0.00 0.00 0.00 58 1023.7
20260508074010 52 152 9.0 12.0 0.00 0.00 0.00 58 1023.6
20260508073511 51 120 5.0 15.0 0.00 0.00 0.00 61 1023.5
20260508073012 51 139 10.0 15.0 0.00 0.00 0.00 60 1023.4
20260508072511 51 112 9.0 14.0 0.00 0.00 0.00 60 1023.4
20260508072009 50 149 7.0 13.0 0.00 0.00 0.00 62 1023.4
20260508071514 51 148 9.0 14.0 0.00 0.00 0.00 61 1023.4
20260508071012 51 171 8.0 14.0 0.00 0.00 0.00 62 1023.3
20260508070508 51 136 8.0 12.0 0.00 0.00 0.00 65 1023.2
20260508070027 50 113 8.0 12.0 0.00 0.00 0.00 66 1023.1
20260508065507 51 171 2.0 8.0 0.00 0.00 0.00 69 1023.0
20260508065010 51 136 3.0 10.0 0.00 0.00 0.00 69 1023.1
20260508064542 51 124 5.0 10.0 0.00 0.00 0.00 73 1022.9
20260508064010 50 122 5.0 10.0 0.00 0.00 0.00 76 1022.9
20260508063507 50 138 4.0 10.0 0.00 0.00 0.00 79 1022.9
20260508063022 50 121 5.0 8.0 0.00 0.00 0.00 78 1022.8
20260508062510 51 119 5.0 8.0 0.00 0.00 0.00 77 1022.7
20260508062010 51 111 4.0 8.0 0.00 0.00 0.00 77 1022.6
20260508061524 51 134 1.0 7.0 0.00 0.00 0.00 78 1022.5
20260508061011 50 117 4.0 7.0 0.00 0.00 0.00 80 1022.5
20260508060513 50 72 3.0 6.0 0.00 0.00 0.00 81 1022.4
20260508060022 50 73 2.0 4.0 0.00 0.00 0.00 81 1022.3
20260508055514 49 89 3.0 4.0 0.00 0.00 0.00 82 1022.3
20260508055008 49 93 2.0 4.0 0.00 0.00 0.00 82 1022.3
20260508054517 48 65 1.0 4.0 0.00 0.00 0.00 83 1022.2
20260508054010 48 59 2.0 4.0 0.00 0.00 0.00 82 1022.2
20260508053508 47 76 0.0 5.0 0.00 0.00 0.00 81 1022.2
20260508053028 47 79 3.0 5.0 0.00 0.00 0.00 81 1022.2
20260508052515 46 76 0.0 2.0 0.00 0.00 0.00 82 1022.3
20260508052012 45 261 0.0 0.0 0.00 0.00 0.00 84 1022.2
20260508051525 44 261 0.0 0.0 0.00 0.00 0.00 85 1022.2
20260508051008 43 261 0.0 0.0 0.00 0.00 0.00 86 1022.2
20260508050510 43 261 0.0 0.0 0.00 0.00 0.00 87 1022.1
20260508050029 41 261 0.0 0.0 0.00 0.00 0.00 88 1022.1
20260508045510 40 261 0.0 0.0 0.00 0.00 0.00 88 1022.1
20260508045011 39 261 0.0 0.0 0.00 0.00 0.00 90 1022.0
20260508044523 38 261 0.0 0.0 0.00 0.00 0.00 89 1022.0
20260508044011 38 261 0.0 0.0 0.00 0.00 0.00 88 1021.9
20260508043508 37 319 0.0 0.0 0.00 0.00 0.00 89 1021.9
20260508043025 37 319 0.0 0.0 0.00 0.00 0.00 88 1021.8
20260508042509 37 319 0.0 0.0 0.00 0.00 0.00 88 1021.8
20260508042008 37 319 0.0 0.0 0.00 0.00 0.00 89 1021.7
20260508041521 36 319 0.0 0.0 0.00 0.00 0.00 89 1021.7
20260508041010 36 319 0.0 0.0 0.00 0.00 0.00 87 1021.6
20260508040509 36 319 0.0 0.0 0.00 0.00 0.00 88 1021.6
20260508040018 36 319 0.0 0.0 0.00 0.00 0.00 89 1021.7
20260508035516 36 319 0.0 0.0 0.00 0.00 0.00 89 1021.7
20260508035014 35 319 0.0 0.0 0.00 0.00 0.00 88 1021.7
20260508034529 35 319 0.0 0.0 0.00 0.00 0.00 88 1021.6
20260508034010 35 319 0.0 0.0 0.00 0.00 0.00 88 1021.7
20260508033510 35 332 0.0 0.0 0.00 0.00 0.00 88 1021.6
20260508033024 35 332 0.0 0.0 0.00 0.00 0.00 88 1021.6
20260508032511 35 332 0.0 0.0 0.00 0.00 0.00 87 1021.6
20260508032011 35 332 0.0 0.0 0.00 0.00 0.00 86 1021.6
20260508031527 35 332 0.0 0.0 0.00 0.00 0.00 87 1021.5
20260508031012 35 332 0.0 0.0 0.00 0.00 0.00 87 1021.5